FW5732 Weather Reports


time (UTC)temp
C
wind
direction
speed
KPH
gust
KPH
rain 1hr
cm
rain 24hr
cm
rain mn
cm
humidity
%
barometer
mb
20260506013537 8 0.0 0.0 0.00 0.00 0.00 90 1007.4
20260506012618 9 0.0 0.0 0.00 0.00 0.00 90 1007.7
20260506011517 9 0.0 0.0 0.00 0.00 0.00 90 1007.7
20260506010517 9 0.0 0.0 0.00 0.00 0.00 90 1007.6
20260506005517 9 0.0 0.0 0.00 0.00 0.00 90 1007.4
20260506004537 9 0.0 0.0 0.00 0.00 0.00 90 1007.4
20260506003537 10 0.0 0.0 0.00 0.00 0.00 89 1007.6
20260506002517 10 0.0 0.0 0.00 0.00 0.00 90 1007.7
20260506001557 10 0.0 0.0 0.00 0.00 0.00 90 1007.5
20260506000517 10 0.0 0.0 0.00 0.00 0.00 89 1007.7
20260505235537 10 0.0 0.0 0.00 0.00 0.00 89 1007.9
20260505190516 13 0.0 0.0 0.00 0.00 0.00 82 1007.3
20260505185536 14 0.0 0.0 0.00 0.00 0.00 81 1007.2
20260505183616 14 0.0 0.0 0.00 0.00 0.00 80 1007.1
20260505182516 15 0.0 0.0 0.00 0.00 0.00 79 1006.8
20260505181515 15 0.0 0.0 0.00 0.00 0.00 78 1006.8
20260505180535 15 0.0 0.0 0.00 0.00 0.00 77 1006.8
20260505175515 16 0.0 0.0 0.00 0.00 0.00 74 1006.5
20260505174515 16 0.0 0.0 0.00 0.00 0.00 73 1006.5
20260505173616 16 0.0 0.0 0.00 0.00 0.00 72 1006.7
20260505172537 16 0.0 0.0 0.00 0.00 0.00 73 1006.7
20260505171518 16 0.0 0.0 0.00 0.00 0.00 73 1006.7
20260505170517 16 0.0 0.0 0.00 0.00 0.00 72 1006.7
20260505165517 16 0.0 0.0 0.00 0.00 0.00 70 1006.7
20260505163517 16 0.0 0.0 0.00 0.00 0.00 71 1006.8
20260505161518 16 0.0 0.0 0.00 0.00 0.00 71 1006.9
20260505160537 16 0.0 0.0 0.00 0.00 0.00 71 1006.9
20260505152517 16 0.0 0.0 0.00 0.00 0.00 72 1006.9
20260505151517 16 0.0 0.0 0.00 0.00 0.00 72 1006.9
20260505150557 17 0.0 0.0 0.00 0.00 0.00 71 1006.8
20260505140537 16 0.0 0.0 0.00 0.00 0.00 70 1006.8
20260505124516 20 0.0 0.0 0.00 0.00 0.00 63 1007.1
20260505123557 20 0.0 0.0 0.00 0.00 0.00 61 1007.1
20260505122657 21 0.0 0.0 0.00 0.00 0.00 58 1007.1
20260505121516 22 0.0 0.0 0.00 0.00 0.00 56 1007.2
20260505120557 22 0.0 0.0 0.00 0.00 0.00 51 1007.2
20260505115516 22 0.0 0.0 0.00 0.00 0.00 52 1007.2
20260505114637 21 0.0 0.0 0.00 0.00 0.00 52 1007.1
20260505113517 21 0.0 0.0 0.00 0.00 0.00 51 1007.1
20260505112537 22 0.0 0.0 0.00 0.00 0.00 50 1007.3
20260505111617 23 0.0 0.0 0.00 0.00 0.00 45 1007.4
20260505110516 23 0.0 0.0 0.00 0.00 0.00 47 1007.4
20260505100516 22 0.0 0.0 0.00 0.00 0.00 52 1007.9
20260505095516 22 0.0 0.0 0.00 0.00 0.00 53 1008.1
20260505094536 22 0.0 0.0 0.00 0.00 0.00 50 1008.1
20260505093516 23 0.0 0.0 0.00 0.00 0.00 56 1008.3
20260505092516 21 0.0 0.0 0.00 0.00 0.00 61 1008.3
20260505091536 19 0.0 0.0 0.00 0.00 0.00 67 1008.1
20260505090516 18 0.0 0.0 0.00 0.00 0.00 66 1008.2
20260505085516 18 0.0 0.0 0.00 0.00 0.00 64 1008.2
20260505084637 19 0.0 0.0 0.00 0.00 0.00 62 1008.2
20260505083516 19 0.0 0.0 0.00 0.00 0.00 61 1008.2
20260505082637 20 0.0 0.0 0.00 0.00 0.00 59 1008.5
20260505081516 20 0.0 0.0 0.00 0.00 0.00 60 1008.5
20260505080516 20 0.0 0.0 0.00 0.00 0.00 62 1008.5
20260505075556 19 0.0 0.0 0.00 0.00 0.00 66 1008.7
20260505074657 18 0.0 0.0 0.00 0.00 0.00 66 1008.7
20260505073516 17 0.0 0.0 0.00 0.00 0.00 69 1008.9
20260505072556 17 0.0 0.0 0.00 0.00 0.00 69 1009.0
20260505071516 17 0.0 0.0 0.00 0.00 0.00 71 1009.0
20260505070616 16 0.0 0.0 0.00 0.00 0.00 76 1008.8
20260505065515 15 0.0 0.0 0.00 0.00 0.00 78 1008.7
20260505064515 15 0.0 0.0 0.00 0.00 0.00 80 1008.7
20260505063516 14 0.0 0.0 0.00 0.00 0.00 80 1008.7
20260505061656 13 0.0 0.0 0.00 0.00 0.00 83 1008.7
20260505060557 12 0.0 0.0 0.00 0.00 0.00 86 1008.6
20260505055535 12 0.0 0.0 0.00 0.00 0.00 87 1008.6
20260505054536 11 0.0 0.0 0.00 0.00 0.00 89 1008.6
20260505053516 11 0.0 0.0 0.00 0.00 0.00 90 1008.6
20260505052515 10 0.0 0.0 0.00 0.00 0.00 90 1008.6
20260505051515 9 0.0 0.0 0.00 0.00 0.00 90 1008.5
20260505050515 8 0.0 0.0 0.00 0.00 0.00 90 1008.6
20260505041617 8 0.0 0.0 0.00 0.00 0.00 90 1008.5
20260505040558 8 0.0 0.0 0.00 0.00 0.00 90 1008.4
20260505035537 8 0.0 0.0 0.00 0.00 0.00 89 1008.4
20260505034557 8 0.0 0.0 0.00 0.00 0.00 89 1008.4
20260505033538 8 0.0 0.0 0.00 0.00 0.00 89 1008.6
20260505032517 9 0.0 0.0 0.00 0.00 0.00 89 1008.8
20260505031517 9 0.0 0.0 0.00 0.00 0.00 89 1008.8
20260505030537 9 0.0 0.0 0.00 0.00 0.00 89 1008.9
20260505025517 10 0.0 0.0 0.00 0.00 0.00 89 1009.0
20260505024617 10 0.0 0.0 0.00 0.00 0.00 89 1009.1
20260505023617 10 0.0 0.0 0.00 0.00 0.00 89 1009.4
20260505022537 10 0.0 0.0 0.00 0.00 0.00 89 1009.6
20260505021517 10 0.0 0.0 0.00 0.00 0.00 89 1009.6
20260505020557 10 0.0 0.0 0.00 0.00 0.00 88 1009.6
20260505015537 10 0.0 0.0 0.00 0.00 0.00 88 1009.8
20260505014557 10 0.0 0.0 0.00 0.00 0.00 88 1009.8